User: anonymous   Login
Location: Conflandey
(47.7287°N, 6.0456°E)
Time: 07:09:01
(UTC+00:00)
Language:

Okean 1-7 Rocket - Orbit

View from above orbital plane
View from above orbital plane
View from above satellite
View from above satellite

Ground track
Ground track

The orbit data is extracted from the following two-line orbital elements,

1 23318U 94066B   22023.79123991  .00000134  00000-0  14922-4 0  9992
2 23318  82.5395  48.9884 0024875 129.6024 230.7390 14.78948480470910
Epoch (UTC): 23 January 2022 18:59:23
Eccentricity: 0.0024875
inclination: 82.5395°
perigee height: 615 km
apogee height: 650 km
right ascension of ascending node: 48.9884°
argument of perigee: 129.6024°
revolutions per day: 14.78948480
mean anomaly at epoch: 230.7390°
orbit number at epoch: 47091

The dashed part of the orbit path shows where the satellite is in the earth's shadow,  

DLR